Location: Binningen
(47.7924°N, 8.7261°E)
Time: 09:15:43
(UTC+00:00)

Resurs 1-4 Rocket - Pass Details

Date: 17 May 2021
Orbit: 800 x 814 km, 98.6° (Epoch: 15 June)

Event Time Altitude Azimuth Distance (km) Brightness Sun altitude
Rises 23:47:36 0° 27° (NNE) 3,321 6.5 -22.4°
Reaches altitude 10° 23:50:37 10° 45° (NE) 2,386 5.2 -22.3°
Maximum altitude 23:54:20 19° 90° (E) 1,820 4.0 -22.3°
Enters shadow 23:56:31 15° 120° (ESE) 2,030 4.0 -22.2°
